K5GHS-1 Weather Reports


Display with metric or nautical units.
time (UTC)temp
F
wind
direction
speed
MPH
gust
MPH
rain 1hr
in
rain 24hr
in
rain mn
in
humidity
%
barometer
mb
20260508190033 79 83 1.0 2.0 0.00 1.16 1.16 60 1009.1
20260508185531 79 79 0.0 3.0 0.00 1.16 1.16 62 1009.1
20260508185028 79 98 1.0 3.0 0.00 1.16 1.16 61 1009.2
20260508184526 78 67 2.0 2.0 0.00 1.16 1.16 59 1009.1
20260508184022 78 93 1.0 3.0 0.00 1.16 1.16 63 1009.2
20260508183519 77 86 1.0 2.0 0.00 1.16 1.16 62 1009.2
20260508183015 77 84 1.0 2.0 0.00 1.16 1.16 62 1009.4
20260508182511 77 58 2.0 3.0 0.00 1.16 1.16 62 1009.5
20260508182008 77 80 0.0 3.0 0.00 1.16 1.16 64 1009.7
20260508181503 78 85 0.0 5.0 0.00 1.16 1.16 62 1009.8
20260508181001 77 77 0.0 2.0 0.00 1.16 1.16 63 1009.9
20260508180458 77 81 0.0 2.0 0.00 1.16 1.16 63 1010.0
20260508175954 76 82 0.0 2.0 0.00 1.16 1.16 64 1010.0
20260508175450 75 85 0.0 2.0 0.00 1.16 1.16 64 1010.1
20260508174948 75 81 2.0 3.0 0.00 1.16 1.16 64 1010.2
20260508174445 75 81 0.0 2.0 0.00 1.16 1.16 64 1010.1
20260508173942 75 94 1.0 2.0 0.00 1.16 1.16 65 1010.2
20260508173439 75 77 0.0 1.0 0.00 1.16 1.16 65 1010.5
20260508172935 74 86 0.0 3.0 0.00 1.16 1.16 66 1010.7
20260508172433 74 96 1.0 1.0 0.00 1.16 1.16 67 1010.7
20260508171929 74 160 2.0 3.0 0.00 1.16 1.16 65 1010.6
20260508171425 73 115 3.0 5.0 0.00 1.16 1.16 66 1011.0
20260508170922 73 97 1.0 5.0 0.00 1.16 1.16 66 1011.1
20260508170419 73 90 2.0 5.0 0.00 1.16 1.16 68 1011.2
20260508165916 72 73 0.0 2.0 0.00 1.16 1.16 68 1011.4
20260508165414 72 79 0.0 2.0 0.00 1.16 1.16 68 1011.2
20260508164909 72 88 1.0 5.0 0.00 1.16 1.16 68 1011.3
20260508164407 72 90 0.0 2.0 0.00 1.16 1.16 69 1011.7
20260508163904 71 80 0.0 2.0 0.00 1.16 1.16 70 1011.6
20260508163402 70 134 1.0 2.0 0.00 1.16 1.16 72 1011.8
20260508162857 70 110 3.0 6.0 0.00 1.16 1.16 72 1011.9
20260508162355 69 107 1.0 7.0 0.00 1.16 1.16 74 1011.8
20260508161851 69 98 1.0 2.0 0.00 1.16 1.16 74 1012.1
20260508161349 68 87 1.0 3.0 0.00 1.16 1.16 74 1012.0
20260508160846 68 86 0.0 2.0 0.00 1.16 1.16 75 1011.9
20260508160345 68 124 1.0 5.0 0.00 1.16 1.16 75 1012.1
20260508155840 67 114 2.0 7.0 0.00 1.16 1.16 75 1011.9
20260508155338 67 135 1.0 2.0 0.00 1.16 1.16 80 1012.2
20260508154835 65 99 1.0 2.0 0.00 1.16 1.16 82 1012.1
20260508154332 64 80 0.0 3.0 0.00 1.16 1.16 85 1012.5
20260508153828 64 85 0.0 1.0 0.00 1.16 1.16 88 1012.4
20260508153326 63 77 1.0 2.0 0.00 1.16 1.16 91 1012.2
20260508152822 63 95 1.0 3.0 0.00 1.16 1.16 93 1012.1
20260508152319 63 113 2.0 2.0 0.00 1.16 1.16 95 1012.3
20260508151815 63 84 0.0 0.0 0.00 1.16 1.16 96 1012.3
20260508151312 63 82 1.0 2.0 0.00 1.16 1.16 96 1012.1
20260508150808 62 86 0.0 2.0 0.00 1.16 1.16 97 1012.6
20260508150305 62 85 0.0 0.0 0.00 1.16 1.16 97 1012.5
20260508145802 62 83 0.0 0.0 0.00 1.16 1.16 97 1012.5
20260508145257 62 99 0.0 1.0 0.00 1.16 1.16 97 1012.4
20260508144754 62 82 0.0 1.0 0.00 1.16 1.16 97 1012.5
20260508144252 62 77 0.0 2.0 0.00 1.16 1.16 97 1012.7
20260508143749 63 82 0.0 0.0 0.00 1.16 1.16 97 1012.7
20260508143246 61 84 0.0 1.0 0.00 1.16 1.16 97 1012.6
20260508142743 62 83 0.0 1.0 0.00 1.16 1.16 97 1012.6
20260508142240 63 69 0.0 1.0 0.00 1.16 1.16 97 1012.7
20260508141736 61 92 0.0 1.0 0.00 1.16 1.16 97 1012.6
20260508141234 61 86 0.0 1.0 0.00 1.16 1.16 97 1012.6
20260508140731 61 97 0.0 1.0 0.00 1.16 1.16 97 1013.0
20260508140227 61 80 0.0 0.0 0.00 1.16 1.16 97 1013.0
20260508135724 61 81 0.0 1.0 0.00 1.16 1.16 97 1012.8
20260508135219 61 92 2.0 2.0 0.00 1.16 1.16 97 1012.8
20260508134710 61 80 0.0 0.0 0.00 1.16 1.16 97 1013.0
20260508134207 60 79 0.0 0.0 0.00 1.16 1.16 97 1012.7
20260508133704 60 71 0.0 1.0 0.00 1.16 1.16 97 1012.8
20260508133202 60 84 0.0 0.0 0.00 1.16 1.16 97 1013.3
20260508132659 61 82 0.0 0.0 0.00 1.16 1.16 97 1012.7
20260508132156 61 77 0.0 0.0 0.00 1.16 1.16 97 1012.8
20260508131651 60 89 0.0 1.0 0.00 1.16 1.16 97 1012.3
20260508131148 61 86 0.0 1.0 0.00 1.16 1.16 97 1012.4
20260508130645 60 114 0.0 1.0 0.00 1.16 1.16 97 1012.3
20260508130142 60 89 0.0 0.0 0.00 1.16 1.16 97 1012.8
20260508125638 60 86 0.0 0.0 0.00 1.16 1.16 97 1012.8
20260508125135 60 86 0.0 0.0 0.00 1.16 1.16 97 1012.8
20260508124633 60 83 0.0 0.0 0.00 1.16 1.16 97 1012.8
20260508124130 60 77 0.0 0.0 0.00 1.16 1.16 97 1013.6
20260508123628 60 77 0.0 0.0 0.00 1.16 1.16 97 1013.4
20260508123125 60 77 0.0 0.0 0.00 1.16 1.16 97 1013.1
20260508122621 60 81 0.0 0.0 0.00 1.16 1.16 97 1013.3
20260508122118 60 81 0.0 0.0 0.00 1.16 1.16 97 1013.1
20260508121617 59 81 0.0 0.0 0.00 1.16 1.16 97 1013.1
20260508121114 60 96 0.0 0.0 0.00 1.16 1.16 96 1013.0
20260508120611 60 86 0.0 1.0 0.00 1.16 1.16 96 1012.8
20260508120110 60 90 0.0 1.0 0.07 1.16 1.16 96 1013.0
20260508115607 60 79 0.0 0.0 0.07 1.16 1.16 96 1013.1
20260508115103 59 74 0.0 0.0 0.00 1.15 1.15 96 1013.2
20260508114601 59 81 0.0 0.0 0.05 1.15 1.15 96 1012.8
20260508114056 59 75 0.0 0.0 0.42 1.15 1.15 96 1012.8
20260508113554 59 75 0.0 0.0 1.44 1.14 1.14 96 1012.3
20260508113052 60 82 0.0 0.0 1.09 1.07 1.07 95 1012.8
20260508112548 59 82 0.0 0.0 0.07 0.90 0.90 95 1012.7
20260508112045 59 85 0.0 2.0 0.00 0.89 0.89 95 1012.1
20260508111542 59 83 0.0 1.0 0.07 0.89 0.89 95 1012.7
20260508111039 60 82 0.0 1.0 0.19 0.89 0.89 94 1012.4
20260508110537 60 85 0.0 1.0 0.47 0.88 0.88 94 1012.7
20260508110033 60 78 0.0 0.0 0.54 0.85 0.85 94 1013.0
20260508105527 60 88 0.0 0.0 0.90 0.80 0.80 93 1012.7
20260508105025 60 91 1.0 2.0 1.96 0.75 0.75 93 1012.8
20260508104523 60 83 0.0 1.0 2.22 0.64 0.64 92 1013.7
20260508104019 61 74 0.0 1.0 0.71 0.39 0.39 91 1013.2
20260508103516 61 82 0.0 0.0 0.42 0.27 0.27 90 1013.1
20260508103014 61 82 0.0 0.0 1.58 0.27 0.27 89 1012.7
20260508102511 62 68 1.0 1.0 1.09 0.18 0.18 88 1012.5
20260508102009 62 176 1.0 5.0 0.00 0.00 0.00 88 1013.7
20260508101506 61 55 0.0 1.0 0.00 0.00 0.00 88 1012.2
20260508101003 61 88 1.0 1.0 0.00 0.00 0.00 89 1011.6
20260508100501 61 85 0.0 0.0 0.00 0.00 0.00 89 1011.8
20260508095957 61 91 0.0 1.0 0.00 0.00 0.00 90 1011.6
20260508095455 61 80 0.0 1.0 0.00 0.00 0.00 91 1011.8
20260508094952 61 85 0.0 0.0 0.00 0.00 0.00 91 1011.6
20260508094448 61 91 0.0 1.0 0.00 0.00 0.00 91 1011.6
20260508093945 61 142 2.0 2.0 0.00 0.00 0.00 91 1011.8
20260508093442 60 89 1.0 1.0 0.00 0.00 0.00 91 1012.1
20260508092940 61 86 0.0 1.0 0.00 0.00 0.00 91 1011.9
20260508092438 61 84 0.0 0.0 0.00 0.00 0.00 91 1011.9
20260508091936 60 84 0.0 0.0 0.00 0.00 0.00 91 1012.1
20260508091432 61 72 0.0 0.0 0.00 0.00 0.00 90 1012.5
20260508090930 61 85 0.0 1.0 0.00 0.00 0.00 90 1012.0
20260508090429 61 88 0.0 1.0 0.00 0.00 0.00 89 1011.9
20260508085924 61 75 0.0 0.0 0.00 0.00 0.00 88 1012.6
20260508085421 61 75 0.0 0.0 0.00 0.00 0.00 87 1012.6
20260508084918 61 75 0.0 0.0 0.00 0.00 0.00 87 1012.5
20260508084414 61 75 0.0 0.0 0.00 0.00 0.00 87 1012.4
20260508083912 61 75 0.0 0.0 0.00 0.00 0.00 87 1012.8
20260508083409 62 84 0.0 0.0 0.00 0.00 0.00 86 1012.4
20260508082909 62 75 0.0 1.0 0.00 0.00 0.00 86 1012.0
20260508082407 62 112 2.0 2.0 0.00 0.00 0.00 85 1012.5
20260508081904 62 126 1.0 2.0 0.00 0.00 0.00 84 1012.1
20260508081401 63 97 1.0 1.0 0.00 0.00 0.00 82 1013.0
20260508080857 63 86 0.0 3.0 0.00 0.00 0.00 80 1012.5
20260508080356 63 95 1.0 2.0 0.00 0.00 0.00 80 1013.4
20260508075852 62 87 0.0 1.0 0.00 0.00 0.00 80 1013.9
20260508075349 62 78 0.0 0.0 0.00 0.00 0.00 81 1013.9
20260508074847 62 87 0.0 0.0 0.00 0.00 0.00 81 1013.7
20260508074343 62 88 0.0 0.0 0.00 0.00 0.00 81 1013.9
20260508073840 62 86 0.0 0.0 0.00 0.00 0.00 81 1013.4
20260508073338 62 86 0.0 0.0 0.00 0.00 0.00 81 1013.6
20260508072835 62 86 0.0 0.0 0.00 0.00 0.00 81 1013.5
20260508072331 62 86 0.0 0.0 0.00 0.00 0.00 81 1013.2
20260508071828 61 86 0.0 0.0 0.00 0.00 0.00 82 1013.2
20260508071327 61 86 0.0 0.0 0.00 0.00 0.00 82 1013.4
20260508070824 61 86 0.0 0.0 0.00 0.00 0.00 82 1013.4
20260508070322 61 86 0.0 0.0 0.00 0.00 0.00 82 1013.3
20260508065819 61 86 0.0 0.0 0.00 0.00 0.00 82 1013.5
20260508065317 61 86 0.0 0.0 0.00 0.00 0.00 82 1013.4
20260508064815 61 86 0.0 0.0 0.00 0.00 0.00 82 1013.8
20260508064313 61 86 0.0 0.0 0.00 0.00 0.00 81 1014.1
20260508063810 61 86 0.0 0.0 0.00 0.00 0.00 81 1014.3
20260508063308 61 86 0.0 0.0 0.00 0.00 0.00 81 1014.3
20260508062805 61 86 0.0 0.0 0.00 0.00 0.00 81 1014.1
20260508062306 61 86 0.0 0.0 0.00 0.00 0.00 80 1014.0
20260508061759 61 86 0.0 0.0 0.00 0.00 0.00 80 1014.0
20260508061256 61 86 0.0 0.0 0.00 0.00 0.00 80 1013.9
20260508060753 61 86 0.0 0.0 0.00 0.00 0.00 80 1013.8
20260508060251 61 86 0.0 0.0 0.00 0.00 0.00 80 1013.9
20260508055746 61 86 0.0 0.0 0.00 0.00 0.00 79 1014.0
20260508055243 61 86 0.0 0.0 0.00 0.00 0.00 79 1013.7
20260508054739 61 86 0.0 0.0 0.00 0.00 0.00 79 1014.0
20260508054238 61 86 0.0 0.0 0.00 0.00 0.00 79 1014.0
20260508053734 61 86 0.0 0.0 0.00 0.00 0.00 79 1014.0
20260508053231 61 86 0.0 0.0 0.00 0.00 0.00 79 1013.7
20260508052728 62 86 0.0 0.0 0.00 0.00 0.00 78 1014.0
20260508052226 62 86 0.0 0.0 0.00 0.00 0.00 78 1014.2
20260508051722 62 86 0.0 0.0 0.00 0.00 0.00 77 1014.1
20260508051217 62 86 0.0 0.0 0.00 0.00 0.00 77 1014.2
20260508050714 62 86 0.0 0.0 0.00 0.00 0.00 76 1014.1
20260508050212 62 86 0.0 0.0 0.00 0.00 0.00 76 1013.9
20260508045706 62 86 0.0 0.0 0.00 0.00 0.00 76 1014.0
20260508045205 62 86 0.0 0.0 0.00 0.00 0.00 77 1014.1
20260508044702 62 86 0.0 0.0 0.00 0.00 0.00 77 1014.2
20260508044158 62 86 0.0 0.0 0.00 0.00 0.00 76 1014.0
20260508043654 62 86 0.0 0.0 0.00 0.00 0.00 76 1014.0
20260508043152 62 86 0.0 0.0 0.00 0.00 0.00 76 1014.0
20260508042649 62 86 0.0 0.0 0.00 0.00 0.00 76 1014.0
20260508042146 62 86 0.0 0.0 0.00 0.00 0.00 76 1014.0
20260508041642 62 86 0.0 0.0 0.00 0.00 0.00 76 1013.9
20260508041139 62 86 0.0 0.0 0.00 0.00 0.00 76 1014.2
20260508040636 62 86 0.0 0.0 0.00 0.00 0.00 75 1013.9
20260508040133 62 86 0.0 0.0 0.00 0.00 0.00 74 1013.8
20260508035630 63 86 0.0 0.0 0.00 0.00 0.00 74 1014.2
20260508035128 63 86 0.0 0.0 0.00 0.00 0.00 74 1014.1
20260508034625 63 86 0.0 0.0 0.00 0.00 0.00 73 1013.8
20260508034121 64 86 0.0 0.0 0.00 0.00 0.00 73 1014.0
20260508033619 64 86 0.0 0.0 0.00 0.00 0.00 73 1014.0
20260508033117 64 86 0.0 0.0 0.00 0.00 0.00 73 1014.0
20260508032613 64 86 0.0 0.0 0.00 0.00 0.00 73 1013.9
20260508032111 64 86 0.0 0.0 0.00 0.00 0.00 72 1013.8
20260508031608 64 86 0.0 0.0 0.00 0.00 0.00 72 1013.8
20260508031103 64 86 0.0 0.0 0.00 0.00 0.00 72 1013.7
20260508030600 64 86 0.0 0.0 0.00 0.00 0.00 71 1013.7
20260508030058 65 82 0.0 1.0 0.00 0.00 0.00 71 1013.9
20260508025554 65 87 0.0 0.0 0.00 0.00 0.00 71 1013.7
20260508025051 65 86 0.0 0.0 0.00 0.00 0.00 71 1013.9
20260508024547 65 90 0.0 0.0 0.00 0.00 0.00 71 1013.9
20260508024044 65 90 0.0 1.0 0.00 0.00 0.00 70 1013.8
20260508023541 65 103 1.0 1.0 0.00 0.00 0.00 70 1013.6
20260508023038 65 106 1.0 1.0 0.00 0.00 0.00 69 1013.7
20260508022534 65 89 0.0 0.0 0.00 0.00 0.00 69 1013.6
20260508022031 66 89 0.0 1.0 0.00 0.00 0.00 68 1013.4
20260508021527 66 87 0.0 1.0 0.00 0.00 0.00 68 1013.6
20260508021023 66 85 0.0 1.0 0.00 0.00 0.00 67 1013.4
20260508020521 66 84 0.0 1.0 0.00 0.00 0.00 67 1013.4
20260508020018 66 86 1.0 1.0 0.00 0.00 0.00 67 1013.2
20260508015515 66 83 0.0 0.0 0.00 0.00 0.00 66 1013.2
20260508015012 66 87 1.0 1.0 0.00 0.00 0.00 66 1013.5
20260508014509 67 119 1.0 1.0 0.00 0.00 0.00 66 1013.4
20260508014005 67 89 0.0 1.0 0.00 0.00 0.00 66 1013.5
20260508013501 67 83 0.0 1.0 0.00 0.00 0.00 66 1013.4
20260508012959 67 82 0.0 1.0 0.00 0.00 0.00 66 1013.1
20260508012456 67 89 0.0 2.0 0.00 0.00 0.00 65 1013.1
20260508011953 67 130 1.0 3.0 0.00 0.00 0.00 65 1013.1
20260508011451 67 88 1.0 3.0 0.00 0.00 0.00 65 1013.2
20260508010948 68 84 0.0 1.0 0.00 0.00 0.00 65 1012.8
20260508010445 68 112 1.0 2.0 0.00 0.00 0.00 65 1013.0
20260508005942 68 85 1.0 6.0 0.00 0.00 0.00 65 1013.1
20260508005439 68 106 1.0 2.0 0.00 0.00 0.00 64 1013.0
20260508004935 68 129 1.0 2.0 0.00 0.00 0.00 64 1013.0
20260508004431 68 87 1.0 5.0 0.00 0.00 0.00 64 1013.0
20260508003928 69 94 3.0 5.0 0.00 0.00 0.00 64 1012.8
20260508003425 69 86 1.0 3.0 0.00 0.00 0.00 63 1013.0
20260508002922 69 106 2.0 5.0 0.00 0.00 0.00 63 1013.0
20260508002419 70 109 2.0 3.0 0.00 0.00 0.00 63 1013.0
20260508001915 70 82 0.0 2.0 0.00 0.00 0.00 62 1013.2
20260508001411 70 93 0.0 1.0 0.00 0.00 0.00 61 1013.2
20260508000908 71 94 2.0 2.0 0.00 0.00 0.00 59 1012.8
20260508000405 71 96 1.0 1.0 0.00 0.00 0.00 55 1013.1
20260507235901 71 90 0.0 1.0 0.00 0.00 0.00 56 1013.0
20260507235358 71 116 0.0 5.0 0.00 0.00 0.00 55 1013.1
20260507234855 72 96 1.0 3.0 0.00 0.00 0.00 54 1013.1
20260507234352 72 129 1.0 1.0 0.00 0.00 0.00 55 1012.8
20260507233848 72 108 0.0 1.0 0.00 0.00 0.00 54 1012.8
20260507233345 72 92 1.0 2.0 0.00 0.00 0.00 53 1013.0
20260507232844 72 88 0.0 1.0 0.00 0.00 0.00 53 1013.1
20260507232340 72 90 1.0 2.0 0.00 0.00 0.00 54 1013.3
20260507231837 72 89 0.0 1.0 0.00 0.00 0.00 54 1013.1
20260507231328 72 105 1.0 2.0 0.00 0.00 0.00 52 1013.3
20260507230824 72 86 1.0 2.0 0.00 0.00 0.00 52 1013.2
20260507230321 72 92 0.0 1.0 0.00 0.00 0.00 53 1013.1
20260507225822 72 86 0.0 2.0 0.00 0.00 0.00 52 1012.8
20260507225318 72 86 1.0 2.0 0.00 0.00 0.00 52 1013.1
20260507224814 72 92 2.0 3.0 0.00 0.00 0.00 51 1013.3
20260507224311 73 96 0.0 2.0 0.00 0.00 0.00 52 1013.4
20260507223807 73 82 1.0 3.0 0.00 0.00 0.00 52 1013.5
20260507223303 73 98 1.0 2.0 0.00 0.00 0.00 50 1013.3
20260507222800 74 91 1.0 3.0 0.00 0.00 0.00 50 1013.4
20260507222256 74 80 0.0 2.0 0.00 0.00 0.00 49 1013.3
20260507221754 75 89 0.0 2.0 0.00 0.00 0.00 48 1013.4
20260507221250 75 88 0.0 0.0 0.00 0.00 0.00 45 1013.2
20260507220746 76 70 0.0 0.0 0.00 0.00 0.00 45 1013.3
20260507220245 76 80 0.0 0.0 0.00 0.00 0.00 45 1013.3
20260507215740 76 74 0.0 0.0 0.00 0.00 0.00 45 1013.4
20260507215238 76 74 0.0 0.0 0.00 0.00 0.00 43 1013.7
20260507214735 76 75 0.0 0.0 0.00 0.00 0.00 45 1013.4
20260507214233 76 74 0.0 1.0 0.00 0.00 0.00 46 1013.6
20260507213728 76 83 0.0 0.0 0.00 0.00 0.00 45 1013.3
20260507213225 76 93 0.0 2.0 0.00 0.00 0.00 44 1013.6
20260507212721 77 92 0.0 1.0 0.00 0.00 0.00 42 1013.5
20260507212218 77 82 0.0 1.0 0.00 0.00 0.00 42 1013.5
20260507211715 77 81 0.0 1.0 0.00 0.00 0.00 43 1013.8
20260507211210 78 99 0.0 2.0 0.00 0.00 0.00 41 1013.8
20260507210708 78 64 0.0 1.0 0.00 0.00 0.00 43 1013.9
20260507210205 77 87 0.0 1.0 0.00 0.00 0.00 43 1013.8
20260507205701 78 81 0.0 0.0 0.00 0.00 0.00 40 1013.8
20260507205158 77 74 0.0 0.0 0.00 0.00 0.00 42 1013.7
20260507204654 77 110 0.0 1.0 0.00 0.00 0.00 42 1013.7
20260507204152 78 99 2.0 3.0 0.00 0.00 0.00 40 1013.8
20260507203650 79 78 0.0 0.0 0.00 0.00 0.00 40 1013.7
20260507203147 80 93 1.0 1.0 0.00 0.00 0.00 38 1014.2
20260507202642 79 77 1.0 2.0 0.00 0.00 0.00 40 1014.2
20260507202138 77 69 0.0 1.0 0.00 0.00 0.00 43 1014.3
20260507201634 78 113 2.0 3.0 0.00 0.00 0.00 40 1014.3
20260507201131 78 64 0.0 1.0 0.00 0.00 0.00 41 1014.2
20260507200627 78 67 0.0 1.0 0.00 0.00 0.00 43 1014.3
20260507200123 78 113 2.0 3.0 0.00 0.00 0.00 40 1014.4
20260507195620 78 71 1.0 2.0 0.00 0.00 0.00 41 1014.6
20260507195117 78 84 0.0 1.0 0.00 0.00 0.00 41 1014.6
20260507194614 78 93 0.0 1.0 0.00 0.00 0.00 42 1014.7
20260507194109 77 73 0.0 1.0 0.00 0.00 0.00 43 1014.8
20260507193607 76 114 1.0 2.0 0.00 0.00 0.00 44 1014.6
20260507193104 76 88 2.0 5.0 0.00 0.00 0.00 43 1014.7
20260507192600 78 79 0.0 1.0 0.00 0.00 0.00 42 1014.9
20260507192057 77 81 0.0 3.0 0.00 0.00 0.00 43 1014.7
20260507191552 77 96 1.0 1.0 0.00 0.00 0.00 41 1015.1
20260507191049 76 71 0.0 2.0 0.00 0.00 0.00 44 1015.3
20260507190547 76 73 0.0 3.0 0.00 0.00 0.00 44 1015.1